Regional Weather Roundup
Issued by NWS Pendleton, OR

Home | Current Version | Previous Version | Text Only | Print | Product List | Glossary On
Versions: 1 2 3 4 5 6 7 8 9 10 11 12 13 14 15 16 17 18 19 20 21 22 23 24 25 26 27 28 29 30 31 32 33 34 35 36 37 38 39 40 41 42 43 44 45 46 47 48 49 50
000
ASUS46 KPDT 310625
RWRPDT
PENDLETON REGIONAL WEATHER ROUNDUP
NATIONAL WEATHER SERVICE PENDLETON OREGON
1100 PM PDT SAT AUG 30 2014

NOTE: FAIR INDICATES FEW OR NO CLOUDS BELOW 12,000 FEET WITH NO
SIGNIFICANT WEATHER AND/OR OBSTRUCTIONS TO VISIBILITY.

# INDICATES UNOFFICIAL STATION AND DATA

WAZ520-310710-
EAST SLOPES OF WASHINGTON CASCADES

CITY            SKY/WX      TMP DP  RH  WIND    PRES   REMARKS
#CLE ELUM HS    N/A         54  47  77  W6      29.89R
#CLE ELUM 2NW   N/A         53  47  80  W3      N/A
#CLE ELUM LAKE  N/A         51  48  89  CALM    29.86R
#CLIFFDEL 2NW   N/A         51  47  86  W5      N/A
#GLENWOOD       N/A         57  48  72  W5      29.90R
#MANASTASH CYN  N/A         49  43  80  CALM    29.90R
#NELSON         N/A         54  49  83  CALM    29.90R
#NELSON 3SW     N/A         48  46  93  CALM    30.08R
#NILE           N/A         56  47  72  W1      29.16R
#RONALD 2NW     N/A         53  48  83  NW1     29.83R
#TEANAWAY 4NE   N/A         55  49  80  CALM    N/A
#TROUT LAKE 1NE N/A         56  46  69  W8      29.92R
$$

WAZ521-310710-
SIMCOE HIGHLANDS

CITY            SKY/WX      TMP DP  RH  WIND    PRES   REMARKS
#BICKLETON HS   N/A         52  43  71  W7      29.97S
#CENTERVILLE 1SWN/A         55  46  72  W16     29.88R
#GOLDENDALE     N/A         58  45  62  W14     N/A
#GOLDENDALE 1NE N/A         57  42  57  CALM    N/A
#GOLDENDALE 1S  N/A         54  47  77  W7      29.92R
#GOLDENDALE 5WNWN/A         56  46  69  SW10    29.89R
#GOODNOE HILLS  N/A         59  49  69  W26     29.87S
#LYLE 6NE       N/A         57  48  72  SW9     29.90R
$$

WAZ026-310710-
KITTITAS VALLEY

CITY            SKY/WX      TMP DP  RH  WIND    PRES   REMARKS
#ELLENSBURG CWU N/A         57  48  72  NW14    29.81S
#ELLENSBURG 3NE N/A         55  48  77  N5      29.91R
#ELLENSBURG     N/A         60  52  75  N1      N/A
#ELLENSBURG 1E  N/A         57  46  67  CALM    N/A
#KITTITAS 3S    N/A         53  49  86  CALM    29.84R
#THORP 6N       N/A         54  47  77  W8      29.86R
$$

WAZ027-310710-
YAKIMA VALLEY

CITY            SKY/WX      TMP DP  RH  WIND    PRES   REMARKS
SUNNYSIDE AP    PTCLDY      61  48  62  W3      29.87R
YAKIMA AIRPORT  CLEAR       62  46  56  CALM    29.88S
6HR MIN TEMP:   59; 6HR MAX TEMP:   79;

YAKIMA-VAGABOND CLEAR       58  46  64  SW2     29.90R
#COWICHE 1N     N/A         60  46  60  W8      30.05S
#DONALD 2NE     N/A         61  45  56  SE1     30.21R
#GRANDVIEW      N/A         62  47  58  CALM    29.86R
#MABTON         N/A         60  47  62  CALM    29.86R
#MOXEE 2E       N/A         60  40  47  NW3     29.86R
#NACHES 2SW     N/A         59  49  69  W9      29.89R
#OUTLOOK DOT    N/A         N/A N/A N/A W8      N/A
#SELAH 8E       N/A         52  43  71  SE3     N/A
#TERRACE HTS    N/A         59  47  64  CALM    29.81R
#TOPPENISH      N/A         63  48  58  NW6     29.76S
#WAPATO 4NE     N/A         61  45  56  SE1     30.21R
#WEST VALLEY    N/A         62  45  54  CALM    29.83R
#W YAKIMA       N/A         61  46  58  CALM    29.84S
#WHITE SWAN 5E  N/A         62  46  56  SW9     29.84R
#WILEY CITY 3W  N/A         53  37  54  CALM    29.88R
$$

WAZ028-310710-
LOWER COLUMBIA BASIN...WASHINGTON

CITY            SKY/WX      TMP DP  RH  WIND    PRES   REMARKS
PASCO           CLEAR       65  55  70  SW10    29.86R
6HR MIN TEMP:   65; 6HR MAX TEMP:   71;

PROSSER AWOS    N/A         57  50  77  SW2     29.89R
RICHLAND AWOS   PTCLDY      66  46  48  W8      29.85R
#BASIN CITY 5SW N/A         64  54  70  SW3     29.84R
#BENTON CITY    N/A         62  49  62  NW2     29.75R
#CONNELL 5N     N/A         59  53  80  CALM    29.79R
#CONNELL 5NW    N/A         58  53  83  SW2     29.78R
#ELTOPIA        N/A         61  54  78  CALM    29.80R
#ELTOPIA 6NW    N/A         62  50  65  W7      28.82R
#KENNEWICK 3S   N/A         60  54  81  S7      29.84R
#PATERSON       N/A         63  54  72  W8      29.85R
#PROSSER        N/A         63  44  50  W2      29.84R
#SAGEMOOR 2W    N/A         59  52  78  SW2     29.68R
#TOUCHET 2S     N/A         64  52  65  SW17G29 29.83R
#WEST PASCO     N/A         64  54  70  SW5     29.83R
$$

WAZ029-310710-
FOOTHILLS OF THE BLUES...WASHINGTON

CITY            SKY/WX      TMP DP  RH  WIND    PRES   REMARKS
WALLA WALLA AP  MOCLEAR     64  49  58  SW14    29.92R
6HR MIN TEMP:   64; 6HR MAX TEMP:   69;

#COLLEGE PLACE  N/A         66  48  52  S3      29.90R
#DAYTON SCHOOL  N/A         63  44  50  S9      29.89R
#LOWDEN 2SE     N/A         64  52  65  W8      29.84R
#PLEASANT VIEW 1N/A         58  52  80  SW14    29.85R
#PRESCOTT       N/A         63  52  67  S1      29.83R
#SUDBURY        N/A         63  N/A N/A CALM    N/A
#WHITMAN COLLEGEN/A         64  50  60  SE6     29.92R
#WAITSBURG 8N   N/A         59  42  53  S9      29.79S
#WALLA WALLA 5E N/A         77  50  39  W7      N/A
#WALLA WALLA U  N/A         65  51  60  SW3     29.87R
#WHITMAN MISSIONN/A         65  52  63  SW7     29.88R
$$

WAZ030-310710-
BLUE MOUNTAINS...WASHINGTON

CITY            SKY/WX      TMP DP  RH  WIND    PRES   REMARKS
$$

ORZ009-041-WAZ024-310710-
COLUMBIA RIVER GORGE

CITY            SKY/WX      TMP DP  RH  WIND    PRES   REMARKS
HOOD RIVER AP   CLOUDY      63  48  58  CALM    29.98S
THE DALLES AP   CLEAR       64  48  56  W14     29.95R
6HR MIN TEMP:   64; 6HR MAX TEMP:   71; 6HR PCP:  0.01;

#ARLINGTON AIRPON/A         61  49  65  W16     N/A
#ARLINGTON HS   N/A         64  48  56  NW8     29.80R
#MARYHILL 2W    N/A         60  50  69  SE10    N/A
#MOSIER 1S      N/A         60  40  47  W8      30.00R
#MURDOCK        N/A         66  53  63  NW12    29.95S
#RUFUS DOT      N/A         65  48  54  W15     N/A

$$

ORZ510-310710-
NORTH CENTRAL OREGON

CITY            SKY/WX      TMP DP  RH  WIND    PRES   REMARKS
#CHENOWITH 1W   N/A         56  48  74  NW18    N/A
#COW CYN RST AREN/A         53  47  80  SW6     N/A
#DUFUR 9E       N/A         55  46  72  SW9     29.98R
#GRASS VALLEY   N/A         55  46  72  S1      N/A
#GRASS VALLEY 1SN/A         56  46  69  NW9     29.95R
#KENT DOT       N/A         52  45  77  NW7     N/A
#MAUPIN SCHOOL  N/A         62  50  65  CALM    28.84R
#MORO SCHOOL    N/A         58  51  77  W13     29.98S
#SHANIKO 5WSW   N/A         52  40  63  W14     N/A
#SHANIKO 4NW    N/A         51  46  83  W13     30.00S
#TYGH VALLEY 2NEN/A         60  51  72  CALM    29.93R
#WAPANITIA AIRPON/A         58  49  72  W6      29.94R
#WASCO DOT      N/A         59  47  64  SW7     N/A
#WASCO 5NE      N/A         56  47  72  SW9     29.90S
$$

ORZ511-310710-
CENTRAL OREGON

CITY            SKY/WX      TMP DP  RH  WIND    PRES   REMARKS
BEND AIRPORT    MOCLEAR     46  41  83  CALM    30.05S
MADRAS AIRPORT  CLOUDY      59  46  62  CALM    30.02S
REDMOND AIRPORT MOCLEAR     54  44  69  CALM    30.02S
6HR MIN TEMP:   54; 6HR MAX TEMP:   65;

#BEND 6E        N/A         50  41  71  CALM    29.88S
#BEND 1SW       N/A         51  42  71  CALM    N/A
#BEND-AWBREY    N/A         50  41  71  W1      29.93R
#BEND-KIM LN    N/A         49  42  77  CALM    30.00S
#CROOKED RVR RANN/A         56  47  72  N14G24  29.92R
#CULVER         N/A         54  46  74  CALM    29.98R
#LAKE BILLY CHINN/A         58  30  34  SE1     30.06R
#POWELL BUTTE 3EN/A         52  45  77  S2      N/A
#POWELL BUTTE   N/A         53  44  71  NW2     29.67S
#PRINEVILLE 3N  N/A         54  47  77  CALM    29.89F
#WARM SPRINGS   N/A         61  48  62  CALM    29.96S


ORZ509-310710-
EAST SLOPES OF OREGON CASCADES

CITY            SKY/WX      TMP DP  RH  WIND    PRES   REMARKS
#BLUE BOX PASS  N/A         47  -4  11  CALM    N/A
#BLACK BUTTE RNCN/A         53  47  80  CALM    29.93S
#CAMP SHERMAN   N/A         53  45  74  CALM    29.95S
#LA PINE DOT    N/A         48  43  83  W3      N/A
#LA PINE 4NW    N/A         45  40  82  CALM    29.99S
#LAVA BUTTE DOT N/A         46  42  86  CALM    N/A
#SISTERS AIRPOR N/A         54  51  90  N3      30.01S
#SISTERS ODOT   N/A         54  N/A N/A S3      N/A
#SISTERS 1NW    N/A         54  46  74  N6      N/A
#SISTERS 3N     N/A         53  45  74  CALM    N/A
#SUNRIVER       N/A         48  43  83  S1      29.83R
#SUNRIVER AP    N/A         48  43  83  CALM    29.91R
#SUTTLE LK DOT  N/A         46  45  96  CALM    N/A
#TUMALO 3W      N/A         51  45  80  N2      29.83R
#WANOGA BUTTE D N/A         43  39  86  NW7     N/A

$$

ORZ044-310710-
LOWER COLUMBIA BASIN...OREGON

CITY            SKY/WX      TMP DP  RH  WIND    PRES   REMARKS
HERMISTON       CLEAR       63  52  67  SW13    29.89R
6HR MIN TEMP:   63; 6HR MAX TEMP:   70;

#BOARDMAN SCHOOLN/A         64  51  63  W7      29.88R
#BOARDMAN 3W    N/A         63  52  67  SW8     29.59R
#BOARDMAN 8SW   N/A         62  53  72  SW12    29.87R
#ECHO 8SW       N/A         62  48  60  W15     29.87R
#IONE SCHOOL    N/A         60  48  64  SW5     29.93R
#IRRIGON 4NW    N/A         64  55  73  S12     N/A
#UMATILLA SCHOOLN/A         62  57  84  W5      29.94R
#UMATILLA       N/A         65  51  60  SW13    29.85R
$$

ORZ507-310710-
NORTHERN FOOTHILLS OF THE BLUES

CITY            SKY/WX      TMP DP  RH  WIND    PRES   REMARKS
PENDLETON AIRPT MOCLDY      62  47  58  W20     29.92R
6HR MIN TEMP:   60; 6HR MAX TEMP:   66; 6HR PCP:  TRACE;

#ADAMS 3WNW     N/A         55  50  83  SW3     29.88R
#ATHENA         N/A         56  51  83  CALM    29.90R
#HELIX SCHOOL   N/A         56  49  77  SW10    29.87R
#HELIX 3N       N/A         54  49  83  SW9     29.90R
#HOLDMAN 5SE    N/A         57  51  80  SW1     29.93R
#HOLDMAN 6E     N/A         57  50  77  N15     29.69R
#M-F GROVE ELEM N/A         62  48  60  S1      29.90R
#M-FREEWATER 5SEN/A         64  50  60  SW6     29.92R
#PENDLETON DNTN N/A         62  45  54  CALM    29.89R
#PDT AQUATIC CTRN/A         64  48  56  W8      29.96R
#PDT SUNRIDGE   N/A         59  50  72  SW7     29.93R
#PENDLETON 7NW  N/A         62  50  65  SW12    29.86S
#PILOT ROCK     N/A         58  48  69  S7      29.96S
#TUTUILLA       N/A         62  54  75  S5      29.83R
#UMAPINE 2E     N/A         65  52  63  SW9     29.86R
#WESTON SCHOOL  N/A         59  48  67  W8      29.89R

$$

ORZ508-310710-
SOUTHERN FOOTHILLS OF THE BLUES

CITY            SKY/WX      TMP DP  RH  WIND    PRES   REMARKS
LEXINGTON       MOCLDY      59  52  78  SW8     29.97R
#AJAX           N/A         58  42  55  W13     29.91S
#CONDON SCHOOL  N/A         56  49  77  W8      29.95S
#CONDON 5W      N/A         53  46  77  W7      29.97R
#FOSSIL SCHOOL  N/A         58  50  75  W2      29.97R
#HEPPNER 4NE    N/A         55  49  80  NW8     29.89R
#LEXINGTON 2SE  N/A         61  51  70  CALM    29.93R
#MIKKALO        N/A         59  48  67  W8      29.96S
#OLEX 4N        N/A         60  51  72  SW16G25 29.92S
#RUGGS 5NE      N/A         55  51  86  W7      30.14R
#RUGGS 2SW      N/A         56  51  83  W3      29.96R

$$

ORZ502-503-310710-
BLUE MOUNTAINS

CITY            SKY/WX      TMP DP  RH  WIND    PRES   REMARKS
MEACHAM         CLOUDY      52  49  89  CALM    29.99R
6HR MIN TEMP:   52; 6HR MAX TEMP:   54; 6HR PCP:  0.03;

#BATTLE MTN DOT N/A         50  50  100 W2      N/A
#HEPPNER 15SE   N/A         50  47  89  CALM    29.91F
#LADD CYN SMT   N/A         49  46  89  W2      N/A
#LADD CREEK ODOTN/A         49  49  100 SW2     N/A
#LONG CREEK HS  N/A         51  50  96  CALM    N/A
#N POWDER DOT   N/A         50  50  100 CALM    N/A
#PIKES PEAK     N/A         54  47  77  SW22    27.99S
#TOLLGATE       N/A         46  45  96  S6      29.93R
#TOLLGATE 9W    N/A         53  49  86  W3      N/A
#UKIAH          N/A         49  47  93  CALM    29.96R
#WESTON 4E      N/A         54  46  74  SW7     29.83R
$$

ORZ505-310710-
JOHN DAY BASIN

CITY            SKY/WX      TMP DP  RH  WIND    PRES   REMARKS
JOHN DAY        MOCLDY      54  51  90  E3      30.01S
#DAYVILLE SCHOOLN/A         57  54  90  CALM    29.97R
#MONUMENT HS    N/A         56  53  90  CALM    29.98S
#MT. VERNON 5SE N/A         51  49  93  CALM    29.98R
#WINLOCK        N/A         54  50  86  CALM    30.08R
$$

ORZ506-310710-
OCHOCO AND JOHN DAY HIGHLANDS

CITY            SKY/WX      TMP DP  RH  WIND    PRES   REMARKS
#BUCK CREEK DOT N/A         52  49  89  W2      N/A
#HORSE RIDGE DO N/A         50  40  68  W6      N/A
#KEYES SMT DOT  N/A         50  46  86  W3      N/A
#PAULINA SCHOOL N/A         51  40  66  CALM    30.01S
#PINE MTN OBS   N/A         42  38  86  N5      N/A
#PRAIRIE CITY   N/A         44  43  96  CALM    30.08R
#SENECA 9NW     N/A         42  40  93  CALM    29.88R
$$

ORZ049-310710-
GRANDE RONDE VALLEY

CITY            SKY/WX      TMP DP  RH  WIND    PRES   REMARKS
LA GRANDE       PTCLDY      54  43  66  CALM    29.97R
#COVE           N/A         53  52  96  E1      29.90R
#COVE SCHOOL    N/A         54  51  90  CALM    29.96R
#COVE 6NW       N/A         52  49  89  CALM    29.93R
#ELGIN 3N       N/A         50  47  89  CALM    29.69R
#ELGIN 1E       N/A         52  48  86  CALM    N/A
#ISLAND CITY 4N N/A         53  50  89  S3      29.83R
#LADD CYN DOT   N/A         53  50  89  SE6     N/A
#LA GRANDE ELEM N/A         54  50  86  CALM    29.96R
#UNION 1S       N/A         53  50  89  CALM    29.80R
$$

ORZ050-310710-
WALLOWA COUNTY

CITY            SKY/WX      TMP DP  RH  WIND    PRES   REMARKS
JOSEPH AIRPORT  PTCLDY      50  43  77  CALM    30.00R
#ENTERPRISE AP  N/A         51  43  74  CALM    29.93R
#ENTERPRISE HS  N/A         51  46  83  CALM    29.99R
#IMNAHA SCHOOL  N/A         61  47  60  CALM    29.90R
#IMNAHA 10S     N/A         56  47  72  CALM    29.96R
#JOSEPH 3N      N/A         48  41  77  CALM    30.01R
#JOSEPH 3W      N/A         47  41  79  CALM    29.84R
#LOSTINE        N/A         48  45  89  SW1     29.68R
#MT HOWARD 8000 N/A         37  N/A N/A SW6     30.09R
#PROMISE 1S     N/A         53  47  80  E5      29.98R
#SHEEP RDG 7000 N/A         41  37  86  CALM    29.86R
#WALLOWA SCHOOL N/A         51  47  86  CALM    30.77R



$$



USA.gov is the U.S. government's official web portal to all federal, state and local government web resources and services.